• In Österreich
  • Länderverzeichnis
  • Für 7 Tage
  • Wassertemperatur
  • Satellitenkarten
  • Wetterkarte
  • News
  • Widgets
  • user-avatar
    Anmelden

    Stündliche Wetter Szczepowice

    Heute, 22 April, Sonntag

    Zeit Temperatur Niederschläge Wind Luftdruck Luftfeuchtigkeit
    00:00 +9°C° 0 mm 2 m/S 758 mmHg 65%
    01:00 +10°C° 0 mm 1 m/S 758 mmHg 66%
    02:00 +9°C° 0 mm 1 m/S 757 mmHg 67%
    03:00 +9°C° 0 mm 1 m/S 757 mmHg 68%
    04:00 +7°C° 0 mm 0 m/S 757 mmHg 69%
    05:00 +9°C° 0 mm 0 m/S 757 mmHg 67%
    06:00 +10°C° 0 mm 0 m/S 757 mmHg 64%
    07:00 +12°C° 0 mm 1 m/S 757 mmHg 59%
    08:00 +14°C° 0 mm 1 m/S 757 mmHg 55%
    09:00 +16°C° 0 mm 1 m/S 757 mmHg 50%
    10:00 +19°C° 0 mm 1 m/S 757 mmHg 45%
    11:00 +20°C° 0 mm 1 m/S 757 mmHg 43%
    12:00 +21°C° 0 mm 1 m/S 756 mmHg 40%
    13:00 +22°C° 0 mm 1 m/S 756 mmHg 38%
    14:00 +22°C° 0 mm 1 m/S 755 mmHg 37%
    15:00 +22°C° 0 mm 1 m/S 755 mmHg 37%
    16:00 +22°C° 0 mm 1 m/S 754 mmHg 37%
    17:00 +20°C° 0 mm 1 m/S 754 mmHg 43%
    18:00 +18°C° 0 mm 2 m/S 754 mmHg 49%
    19:00 +16°C° 0 mm 2 m/S 754 mmHg 55%
    20:00 +14°C° 0 mm 3 m/S 754 mmHg 56%
    21:00 +13°C° 0 mm 3 m/S 754 mmHg 58%
    22:00 +13°C° 0 mm 3 m/S 754 mmHg 59%
    23:00 +12°C° 0 mm 3 m/S 754 mmHg 59%

    Morgen, 23 April, Montag

    Zeit Temperatur Niederschläge Wind Luftdruck Luftfeuchtigkeit
    00:00 +12°C° 0 mm 3 m/S 754 mmHg 60%
    01:00 +12°C° 0 mm 4 m/S 753 mmHg 60%
    02:00 +12°C° 0,1 mm 3 m/S 753 mmHg 62%
    03:00 +11°C° 0,1 mm 3 m/S 752 mmHg 64%
    04:00 +11°C° 0,1 mm 3 m/S 752 mmHg 66%
    05:00 +12°C° 0,1 mm 3 m/S 752 mmHg 68%
    06:00 +13°C° 0,1 mm 4 m/S 752 mmHg 71%
    07:00 +14°C° 0,1 mm 4 m/S 751 mmHg 74%
    08:00 +17°C° 0 mm 4 m/S 751 mmHg 71%
    09:00 +19°C° 0 mm 5 m/S 751 mmHg 68%
    10:00 +22°C° 0 mm 5 m/S 751 mmHg 65%
    11:00 +22°C° 0,6 mm 5 m/S 751 mmHg 64%
    12:00 +22°C° 0,6 mm 6 m/S 751 mmHg 63%
    13:00 +23°C° 0,6 mm 6 m/S 751 mmHg 62%
    14:00 +22°C° 0,6 mm 6 m/S 751 mmHg 64%
    15:00 +22°C° 0,6 mm 6 m/S 751 mmHg 65%
    16:00 +21°C° 0,6 mm 6 m/S 751 mmHg 67%
    17:00 +19°C° 0,2 mm 5 m/S 751 mmHg 71%
    18:00 +18°C° 0,2 mm 4 m/S 752 mmHg 75%
    19:00 +16°C° 0,2 mm 3 m/S 752 mmHg 80%
    20:00 +14°C° 0 mm 3 m/S 753 mmHg 81%
    21:00 +13°C° 0 mm 3 m/S 753 mmHg 83%
    22:00 +13°C° 0 mm 2 m/S 754 mmHg 85%
    23:00 +13°C° 0 mm 2 m/S 754 mmHg 86%

    übermorgen, 24 April, Dienstag

    Zeit Temperatur Niederschläge Wind Luftdruck Luftfeuchtigkeit
    00:00 +11°C° 0 mm 3 m/S 754 mmHg 87%
    01:00 +10°C° 0 mm 3 m/S 755 mmHg 89%
    02:00 +10°C° 0 mm 3 m/S 755 mmHg 90%
    03:00 +9°C° 0 mm 3 m/S 755 mmHg 91%
    04:00 +9°C° 0 mm 3 m/S 755 mmHg 91%
    05:00 +9°C° 0 mm 3 m/S 755 mmHg 87%
    06:00 +10°C° 0 mm 4 m/S 755 mmHg 82%
    07:00 +10°C° 0 mm 5 m/S 756 mmHg 78%
    08:00 +12°C° 0 mm 5 m/S 756 mmHg 71%
    09:00 +14°C° 0 mm 5 m/S 755 mmHg 64%
    10:00 +15°C° 0 mm 5 m/S 755 mmHg 57%
    11:00 +16°C° 0 mm 5 m/S 755 mmHg 54%
    12:00 +17°C° 0 mm 5 m/S 755 mmHg 50%
    13:00 +19°C° 0 mm 5 m/S 754 mmHg 47%
    14:00 +19°C° 0 mm 5 m/S 754 mmHg 47%
    15:00 +20°C° 0 mm 5 m/S 753 mmHg 48%
    16:00 +20°C° 0 mm 5 m/S 753 mmHg 49%
    17:00 +19°C° 0 mm 5 m/S 753 mmHg 54%
    18:00 +18°C° 0 mm 4 m/S 753 mmHg 59%
    19:00 +15°C° 0 mm 4 m/S 752 mmHg 64%
    20:00 +16°C° 0 mm 3 m/S 753 mmHg 68%
    21:00 +14°C° 0 mm 3 m/S 753 mmHg 71%
    22:00 +13°C° 0 mm 3 m/S 753 mmHg 75%
    23:00 +13°C° 0 mm 3 m/S 753 mmHg 78%

    25 April, Mittwoch

    Zeit Temperatur Niederschläge Wind Luftdruck Luftfeuchtigkeit
    00:00 +13°C° 0 mm 3 m/S 753 mmHg 81%
    01:00 +13°C° 0 mm 3 m/S 753 mmHg 83%
    02:00 +12°C° 0 mm 3 m/S 753 mmHg 85%
    03:00 +12°C° 0 mm 3 m/S 753 mmHg 87%
    04:00 +12°C° 0 mm 3 m/S 753 mmHg 89%
    05:00 +12°C° 0 mm 4 m/S 753 mmHg 87%
    06:00 +13°C° 0 mm 4 m/S 753 mmHg 86%
    07:00 +13°C° 0 mm 4 m/S 753 mmHg 85%
    08:00 +13°C° 0,2 mm 3 m/S 753 mmHg 83%
    09:00 +13°C° 0,2 mm 3 m/S 753 mmHg 82%
    10:00 +13°C° 0,2 mm 3 m/S 753 mmHg 81%
    11:00 +12°C° 0,7 mm 3 m/S 753 mmHg 82%
    12:00 +11°C° 0,7 mm 3 m/S 753 mmHg 83%
    13:00 +10°C° 0,7 mm 3 m/S 752 mmHg 84%
    14:00 +10°C° 0,7 mm 3 m/S 752 mmHg 85%
    15:00 +9°C° 0,7 mm 2 m/S 752 mmHg 87%
    16:00 +9°C° 0,7 mm 2 m/S 752 mmHg 88%
    17:00 +9°C° 0,2 mm 2 m/S 752 mmHg 89%
    18:00 +9°C° 0,2 mm 1 m/S 752 mmHg 90%
    19:00 +9°C° 0,2 mm 1 m/S 752 mmHg 91%
    20:00 +9°C° 0,1 mm 1 m/S 753 mmHg 92%
    21:00 +8°C° 0,1 mm 1 m/S 753 mmHg 94%
    22:00 +8°C° 0,1 mm 1 m/S 753 mmHg 95%
    23:00 +8°C° 0 mm 1 m/S 753 mmHg 95%

    26 April, Donnerstag

    Zeit Temperatur Niederschläge Wind Luftdruck Luftfeuchtigkeit
    00:00 +7°C° 0 mm 2 m/S 753 mmHg 96%
    01:00 +6°C° 0 mm 2 m/S 753 mmHg 96%
    02:00 +7°C° 0 mm 2 m/S 753 mmHg 96%
    03:00 +7°C° 0 mm 3 m/S 752 mmHg 97%
    04:00 +7°C° 0 mm 3 m/S 752 mmHg 97%
    05:00 +8°C° 0 mm 3 m/S 752 mmHg 95%
    06:00 +8°C° 0 mm 4 m/S 753 mmHg 92%
    07:00 +8°C° 0 mm 4 m/S 753 mmHg 89%
    08:00 +11°C° 0 mm 4 m/S 753 mmHg 81%
    09:00 +12°C° 0 mm 4 m/S 753 mmHg 73%
    10:00 +14°C° 0 mm 4 m/S 753 mmHg 65%
    11:00 +14°C° 0,2 mm 5 m/S 752 mmHg 63%
    12:00 +14°C° 0,2 mm 5 m/S 752 mmHg 61%
    13:00 +15°C° 0,2 mm 6 m/S 751 mmHg 60%
    14:00 +14°C° 0,3 mm 6 m/S 751 mmHg 59%
    15:00 +14°C° 0,3 mm 7 m/S 752 mmHg 59%
    16:00 +14°C° 0,3 mm 7 m/S 752 mmHg 58%
    17:00 +13°C° 0 mm 6 m/S 752 mmHg 61%
    18:00 +10°C° 0 mm 5 m/S 753 mmHg 64%
    19:00 +10°C° 0 mm 4 m/S 753 mmHg 67%
    20:00 +9°C° 0 mm 3 m/S 754 mmHg 70%
    21:00 +8°C° 0 mm 3 m/S 754 mmHg 74%
    22:00 +7°C° 0 mm 3 m/S 755 mmHg 77%
    23:00 +7°C° 0 mm 3 m/S 755 mmHg 79%

    27 April, Freitag

    Zeit Temperatur Niederschläge Wind Luftdruck Luftfeuchtigkeit
    00:00 +5°C° 0 mm 3 m/S 755 mmHg 82%
    01:00 +5°C° 0 mm 3 m/S 755 mmHg 84%
    02:00 +5°C° 0 mm 3 m/S 755 mmHg 86%
    03:00 +4°C° 0 mm 3 m/S 755 mmHg 88%
    04:00 +4°C° 0 mm 3 m/S 755 mmHg 89%
    05:00 +5°C° 0 mm 3 m/S 755 mmHg 85%
    06:00 +6°C° 0 mm 4 m/S 755 mmHg 80%
    07:00 +7°C° 0 mm 4 m/S 755 mmHg 75%
    08:00 +10°C° 0 mm 4 m/S 755 mmHg 68%
    09:00 +10°C° 0 mm 5 m/S 755 mmHg 60%
    10:00 +13°C° 0 mm 5 m/S 755 mmHg 53%
    11:00 +13°C° 0 mm 5 m/S 755 mmHg 50%
    12:00 +14°C° 0 mm 5 m/S 755 mmHg 47%
    13:00 +15°C° 0 mm 5 m/S 755 mmHg 44%
    14:00 +15°C° 0 mm 4 m/S 755 mmHg 46%
    15:00 +15°C° 0 mm 4 m/S 755 mmHg 48%
    16:00 +16°C° 0 mm 3 m/S 754 mmHg 49%
    17:00 +14°C° 0 mm 3 m/S 754 mmHg 53%
    18:00 +13°C° 0 mm 2 m/S 755 mmHg 57%
    19:00 +12°C° 0 mm 2 m/S 755 mmHg 61%
    20:00 +11°C° 0 mm 1 m/S 755 mmHg 62%
    21:00 +10°C° 0 mm 1 m/S 755 mmHg 64%
    22:00 +9°C° 0 mm 1 m/S 755 mmHg 65%
    23:00 +9°C° 0 mm 1 m/S 755 mmHg 67%
    Mehr zeigen